Theta_e
339 339 340 342 345 342 340 340 339 342 342 342 342 341 342 343 344 346 346 346 345 345 344 343 344 346 346 344 344 342 341 340 338 334 333 333 331 331 335 334 334 334 334 331 330 325 320 315 315 322 322 320 320 319 318 314 314 313 313 312 311 311 313
340 342 342 342 344 344 341 341 338 338 340 341 341 342 341 342 343 344 345 345 345 344 343 343 344 346 346 343 343 342 341 340 340 339 336 334 334 332 332 332 333 332 331 331 331 329 322 319 317 316 315 320 321 319 319 320 317 316 315 312 311 311 313
340 342 342 341 343 344 341 340 339 338 338 340 340 340 341 341 343 343 344 344 345 344 342 343 343 344 345 344 344 342 341 340 341 338 336 336 334 334 334 333 330 329 328 327 325 324 323 322 318 316 316 314 313 316 320 319 319 318 314 313 313 312 312
340 341 341 341 342 343 342 340 340 339 339 340 342 341 341 342 344 343 343 344 345 344 343 342 342 343 345 344 344 343 342 340 339 338 337 336 335 336 335 333 330 329 326 323 323 323 321 319 318 318 317 316 314 314 317 319 318 317 314 314 312 312 312
342 340 341 340 341 342 342 340 341 340 340 342 342 342 342 343 344 343 344 344 343 344 343 344 344 343 345 344 344 342 341 340 340 338 337 335 336 335 334 334 333 332 331 327 328 328 324 321 322 320 319 318 317 317 319 318 319 317 315 313 313 312 311
344 341 341 342 342 342 342 342 341 339 340 340 341 341 342 343 343 343 343 343 343 344 344 344 344 343 344 343 342 342 341 340 339 338 337 336 336 334 334 335 335 333 332 332 331 330 329 328 326 321 322 321 318 317 317 317 314 316 314 313 313 311 311
345 343 343 342 343 343 343 343 341 340 340 340 341 341 342 343 343 344 344 344 345 345 344 344 343 343 344 342 341 341 340 340 340 339 338 338 338 337 337 334 333 332 331 332 331 330 328 327 324 322 321 322 321 318 315 315 315 312 313 313 313 312 311
345 344 344 344 344 343 343 343 343 343 342 342 342 343 343 343 343 344 344 344 344 344 344 344 344 343 344 342 341 340 340 341 340 339 338 338 335 335 334 333 333 332 331 332 332 331 330 328 327 325 323 319 318 318 313 314 313 312 311 311 313 311 311
345 346 345 345 346 345 345 344 345 344 344 344 344 344 344 343 343 343 343 343 344 345 344 344 343 342 342 341 339 340 340 341 338 339 337 336 335 335 334 333 332 331 332 333 332 331 331 331 330 329 326 322 317 313 315 312 312 311 314 310 310 311 310
346 345 345 345 346 347 346 346 346 345 346 345 344 344 344 344 343 343 342 342 344 345 344 343 343 342 342 340 339 339 338 337 337 336 336 335 335 335 335 334 332 332 333 333 332 332 333 331 330 329 327 322 321 315 312 310 311 310 310 310 306 308 310
347 346 346 345 346 347 346 346 346 345 345 346 345 345 344 343 343 343 342 341 343 344 344 343 342 342 341 340 339 338 338 337 336 336 336 335 334 334 334 334 333 332 332 332 332 332 331 331 328 327 326 325 323 318 315 311 311 313 311 309 308 306 308
349 348 347 347 347 347 346 346 345 345 346 346 344 344 344 343 343 343 342 341 343 344 344 343 342 342 340 339 338 337 337 337 335 334 334 334 334 333 332 331 332 331 332 332 331 331 330 329 329 327 326 325 323 322 319 316 309 315 317 309 307 308 307
349 348 348 347 346 346 347 346 345 345 345 346 345 344 343 342 342 342 342 342 342 343 343 343 342 341 340 339 338 337 336 336 334 333 332 333 333 333 331 330 330 330 331 330 330 331 329 329 329 326 324 324 321 320 319 315 312 313 313 310 310 308 308
348 349 348 348 347 346 346 346 345 345 346 345 345 344 343 342 342 342 342 340 341 342 342 342 341 340 339 338 337 336 336 334 332 332 331 330 330 330 331 330 330 330 331 330 329 328 324 325 325 325 324 320 318 318 317 315 310 311 312 315 313 309 310
349 349 348 347 346 346 346 346 346 345 345 345 345 343 343 342 342 341 340 340 340 341 341 341 340 339 338 337 336 336 335 333 331 330 330 328 329 329 328 327 327 328 329 327 325 324 324 323 322 320 319 319 315 316 317 316 313 310 307 310 308 308 307
349 349 348 347 347 346 346 346 346 344 344 345 344 343 342 342 342 341 340 339 339 340 340 340 340 339 338 336 335 334 334 332 330 329 329 328 328 329 328 327 326 326 329 325 325 323 323 320 319 317 316 314 314 314 315 313 309 308 308 309 310 306 307
348 348 347 347 347 347 347 346 346 345 344 345 344 343 343 343 342 341 340 339 339 339 339 339 339 339 337 336 335 334 333 332 331 330 329 328 328 328 326 325 325 325 325 323 322 321 320 319 317 315 314 313 313 315 314 312 312 314 310 308 307 306 308
347 347 347 347 348 348 347 347 346 344 344 344 344 343 342 342 341 340 340 338 338 337 338 339 339 338 337 336 335 334 332 331 332 330 329 329 330 327 326 324 324 324 323 320 319 318 317 316 314 313 311 310 309 313 315 313 313 312 310 308 308 309 308
346 346 347 347 348 348 348 347 346 345 344 343 343 342 341 342 340 339 339 338 338 337 338 339 339 337 336 335 334 333 332 331 331 331 330 329 328 327 325 323 323 323 321 319 318 317 315 314 312 311 310 309 309 313 314 312 312 312 310 309 307 307 307
346 346 346 347 348 348 348 347 346 345 344 344 342 341 342 341 341 340 340 339 338 337 337 339 339 337 336 335 334 333 332 330 330 329 329 328 328 326 324 323 322 322 320 319 318 316 314 312 312 311 311 311 311 313 311 309 308 307 306 307 306 305 305
345 346 347 347 347 348 348 347 346 345 344 343 342 342 341 341 341 341 340 339 339 337 336 337 337 337 336 335 333 333 332 329 329 328 328 328 327 325 323 322 322 321 320 319 318 315 315 312 311 311 310 311 314 311 308 307 305 304 305 306 305 303 305
345 345 345 346 347 347 347 347 347 345 344 343 343 342 342 342 341 340 340 339 338 337 337 337 337 337 335 334 333 332 331 329 328 327 328 327 326 324 322 321 321 320 321 322 318 316 316 315 312 310 310 312 310 308 305 305 306 305 305 305 305 306 303
345 345 345 345 346 347 347 347 347 345 344 343 343 342 342 342 341 341 339 339 338 338 337 337 329 321 323 332 333 332 331 329 328 327 326 324 323 322 321 320 321 322 319 317 313 309 307 309 313 314 311 311 308 306 304 304 304 305 304 302 303 303 302
345 345 344 344 345 346 346 346 346 345 344 343 342 342 342 341 341 341 340 338 338 338 337 336 317 312 312 316 330 331 330 328 327 327 325 324 321 320 319 319 319 320 317 315 310 303 301 300 300 304 308 311 313 307 305 305 304 305 303 304 305 303 302
344 343 344 343 344 345 345 346 345 345 344 342 342 342 341 341 341 341 340 339 338 338 337 323 309 309 310 310 318 330 328 327 326 325 325 323 320 319 318 317 318 316 314 311 307 304 302 299 297 297 296 297 296 295 300 309 308 305 305 304 302 302 304
338 341 343 343 344 344 344 345 345 344 343 343 342 341 340 341 341 341 340 339 338 338 338 313 306 307 307 307 310 321 327 327 325 325 325 322 319 318 317 317 315 314 313 312 311 307 304 301 300 299 299 299 298 296 293 293 296 310 311 308 305 305 305
334 337 342 343 343 342 342 343 344 345 343 342 341 341 340 340 340 340 340 339 338 338 338 308 305 305 306 305 306 315 327 326 326 326 324 321 319 318 317 316 313 312 312 310 309 308 306 304 302 303 305 306 305 301 297 297 297 298 306 313 309 307 308
333 335 337 341 342 341 342 342 343 344 343 342 341 339 339 339 339 339 339 339 339 337 338 303 303 303 304 305 305 313 327 327 326 326 323 320 319 318 317 317 314 312 311 310 310 309 307 305 304 305 304 306 307 307 307 309 310 311 311 315 312 309 309
333 333 335 339 340 340 340 342 342 343 342 342 341 340 339 339 338 339 340 339 338 337 329 300 302 302 303 304 305 324 326 326 325 323 321 320 319 318 317 316 314 312 312 310 307 301 304 305 303 303 304 303 304 306 308 308 300 303 311 311 308 305 301
333 333 333 335 338 338 339 341 342 342 341 341 340 339 338 338 339 339 339 338 337 336 321 302 301 302 303 302 309 325 325 324 323 322 320 319 318 317 317 316 315 313 312 310 303 297 299 303 303 303 303 303 304 304 305 304 296 294 294 293 293 293 292
332 331 332 333 335 339 339 341 342 341 341 340 339 339 338 338 339 338 337 337 337 336 319 305 300 301 302 302 313 325 325 323 321 321 321 319 318 317 316 316 317 314 311 309 297 296 297 303 304 303 303 302 301 302 305 307 305 302 294 293 293 292 293
331 331 330 330 334 338 338 339 341 342 341 340 339 340 337 338 338 338 338 338 327 332 318 307 299 301 301 302 314 325 325 323 321 321 321 317 316 315 315 314 314 312 311 305 295 296 296 304 306 304 303 301 299 301 304 306 304 303 302 302 301 301 299
329 329 330 331 333 338 338 339 340 341 340 340 339 339 337 337 336 337 337 336 333 332 319 311 303 300 301 301 308 324 325 323 321 320 318 315 314 313 314 313 309 301 300 296 295 295 296 300 306 305 303 301 300 302 306 307 305 304 303 302 302 303 303
333 331 331 332 335 337 338 338 340 340 339 339 338 337 336 336 336 336 336 336 335 332 320 313 305 298 300 301 304 313 324 323 322 319 316 313 313 313 312 312 311 299 295 295 295 295 296 297 301 305 304 302 302 304 304 307 306 307 305 302 302 303 302
329 329 328 327 328 333 338 339 339 340 339 338 336 336 335 333 334 334 334 335 334 332 317 310 308 298 299 300 302 306 321 323 320 318 315 313 313 312 312 312 308 298 295 295 296 296 296 296 297 306 304 299 298 298 306 309 308 306 306 303 301 301 301
328 328 327 327 326 328 334 338 339 339 338 336 335 334 334 333 333 333 333 333 332 330 317 311 304 302 298 299 301 303 307 313 304 317 315 313 313 312 313 311 306 297 294 295 295 296 296 296 296 303 296 294 295 295 300 305 306 306 304 303 302 300 301
329 328 328 329 330 329 333 337 338 337 336 335 334 333 333 332 331 331 330 330 331 328 316 314 303 301 301 298 299 302 301 303 303 314 316 314 314 313 312 309 301 294 294 295 295 295 295 296 299 291 291 293 293 296 303 302 304 305 302 300 301 301 301
Wind_Speed
10 9 10 8 7 9 9 10 9 8 10 10 9 9 9 8 8 8 7 6 5 6 6 6 5 5 5 5 5 6 6 6 8 9 9 8 8 6 5 5 4 3 3 3 1 1 2 5 4 3 5 5 5 5 4 6 5 4 6 4 6 5 6
10 8 9 9 7 9 10 8 10 10 10 10 10 9 9 9 8 8 8 8 7 6 7 6 5 6 6 6 6 5 6 5 6 6 7 7 7 5 4 6 4 4 3 3 3 4 2 2 5 7 4 4 4 5 6 3 3 4 7 7 5 7 6
10 8 9 10 9 9 10 10 10 9 9 8 9 10 9 10 9 8 8 9 8 7 6 6 6 6 6 5 6 6 5 5 4 7 6 6 5 4 5 4 4 3 3 3 5 4 3 4 3 4 7 7 7 6 6 5 4 3 5 6 5 2 5
13 11 10 11 10 9 10 11 10 9 9 10 9 9 10 9 8 9 8 8 8 7 6 7 6 6 6 6 5 7 6 6 6 6 5 6 5 5 6 5 5 5 6 5 3 3 3 3 4 5 6 8 10 7 7 7 5 5 3 6 5 3 3
13 12 12 13 13 11 10 10 9 9 9 9 10 9 10 10 8 8 8 8 8 8 7 5 5 5 6 5 5 6 6 6 5 6 5 6 6 5 4 4 5 5 4 5 4 4 5 4 3 3 3 7 7 6 6 6 6 5 4 7 6 5 6
12 13 12 11 12 11 11 10 10 10 10 10 10 10 9 11 9 9 9 8 7 8 7 7 5 6 6 6 6 6 6 6 6 6 6 5 5 5 5 3 3 4 4 3 3 3 3 4 5 3 3 3 4 4 6 8 5 5 5 7 6 6 5
12 12 11 11 12 10 11 11 11 11 11 11 10 11 10 11 9 9 9 8 7 7 8 8 6 6 6 6 6 6 6 6 5 7 6 5 5 4 3 4 4 4 4 3 4 3 3 2 2 2 3 3 3 3 4 6 5 6 4 6 6 6 6
12 12 11 10 11 12 11 11 11 11 10 10 10 9 10 10 10 10 10 10 9 7 8 8 7 6 6 7 6 6 6 5 5 6 5 6 6 5 4 4 4 4 5 6 4 4 3 4 4 4 3 4 5 2 5 5 6 8 7 6 7 5 6
13 11 10 9 10 12 11 12 11 11 10 9 9 9 10 10 10 11 11 11 9 9 8 9 8 7 7 8 6 6 7 5 6 7 6 6 5 6 6 6 6 6 6 5 4 4 4 3 2 2 3 4 4 3 4 6 7 8 9 7 4 7 5
14 13 13 14 12 12 11 11 10 11 10 9 9 9 10 10 10 10 11 11 11 10 9 9 9 9 8 8 7 8 7 7 7 7 6 6 7 6 5 6 6 5 3 3 3 4 4 2 2 2 3 4 5 5 2 4 7 4 8 8 6 5 5
15 14 13 12 11 11 11 10 10 11 12 11 10 9 10 11 10 11 10 11 11 11 10 10 10 10 9 8 8 8 7 6 6 6 7 7 5 5 4 3 3 3 3 3 3 3 3 4 5 4 5 5 4 5 5 4 2 2 2 5 5 6 5
15 14 13 12 12 12 13 12 12 12 11 11 11 10 10 11 11 10 11 10 10 11 10 10 10 10 9 8 8 7 8 8 7 6 5 5 4 5 5 6 5 5 4 4 4 5 5 6 6 6 6 3 1 1 1 0 1 1 0 3 3 6 7
15 15 14 14 14 14 14 14 13 13 13 11 11 12 11 11 12 11 11 10 11 11 11 10 10 10 9 8 8 8 7 8 8 6 5 5 4 6 8 8 8 6 6 7 7 6 8 6 5 4 3 3 2 0 1 1 0 2 5 2 4 5 10
15 14 15 14 14 14 12 13 14 13 12 12 13 13 13 13 13 12 12 11 11 11 12 11 10 9 9 9 9 9 8 8 8 6 6 6 7 5 6 10 10 9 9 9 8 6 5 3 2 3 2 2 2 2 1 1 2 2 3 2 3 4 4
15 15 15 14 15 14 13 13 14 13 13 13 14 14 14 12 12 13 12 13 11 11 12 12 11 10 10 10 10 9 8 9 9 7 6 6 6 7 6 6 7 10 11 8 4 3 4 4 4 3 2 3 3 3 4 2 2 3 2 1 5 4 4
16 16 17 14 15 16 14 13 14 15 14 13 13 13 13 13 13 14 14 13 13 12 13 12 10 11 11 11 12 10 9 10 9 8 8 8 8 7 6 4 5 5 2 4 3 3 3 3 3 4 4 4 4 4 4 4 4 3 7 3 4 4 3
17 17 17 15 16 16 14 13 13 14 14 12 14 13 13 14 14 14 14 14 14 13 13 12 11 12 12 12 12 12 10 9 9 10 9 9 9 7 7 6 6 6 4 4 4 3 3 5 5 5 5 4 4 4 3 5 5 2 4 5 3 4 5
17 18 18 16 17 17 15 14 13 15 14 13 14 14 13 13 15 14 14 16 15 14 14 13 12 12 11 11 12 11 11 10 8 10 10 9 8 7 7 7 7 7 5 6 5 5 5 5 5 4 5 4 5 4 3 4 4 6 6 5 4 4 5
18 19 18 18 18 17 16 15 14 13 15 15 14 14 14 13 13 14 13 14 14 14 13 13 13 13 12 11 11 11 10 11 9 9 10 8 7 6 4 6 7 8 6 8 7 5 4 5 4 4 5 5 4 4 4 4 6 6 7 6 7 5 4
17 18 18 17 16 16 16 15 15 15 14 15 15 14 15 14 12 14 13 13 14 14 13 13 13 13 13 12 12 11 11 11 9 8 7 7 7 7 7 7 7 7 7 7 6 6 5 5 5 5 5 5 4 6 6 4 4 4 4 3 4 5 4
16 17 17 17 16 16 16 16 15 15 14 15 16 17 16 15 12 12 13 14 15 14 13 14 14 13 13 13 12 11 11 11 11 9 9 9 9 7 7 7 7 6 7 7 6 6 6 7 5 5 5 4 5 7 6 5 4 5 5 4 3 4 3
15 15 16 17 16 16 16 16 15 14 14 14 14 16 14 14 13 14 14 14 15 13 12 13 12 13 14 14 12 12 12 12 12 11 10 9 7 6 6 7 7 6 7 9 10 8 7 7 6 6 5 4 6 6 5 5 5 5 5 4 4 4 4
15 15 15 16 16 16 16 16 15 15 16 16 15 15 14 14 14 14 15 14 14 13 12 11 14 19 17 13 12 11 11 11 12 11 10 8 6 6 7 6 6 10 12 12 12 12 11 9 5 5 5 5 6 5 6 5 5 5 5 5 4 5 5
15 16 15 15 15 16 17 15 15 16 15 15 16 15 15 15 15 14 15 14 14 13 12 11 18 21 21 19 13 11 11 11 11 11 10 10 9 8 6 7 5 8 11 9 9 12 11 10 8 7 8 7 5 4 5 4 4 4 5 5 4 4 5
14 16 16 16 16 17 16 16 16 17 16 15 14 14 15 16 16 14 13 15 14 13 12 13 20 21 21 20 17 12 10 10 10 10 10 10 8 7 7 7 5 6 6 9 8 9 10 11 11 10 10 11 10 10 6 2 4 4 4 4 5 5 4
13 14 16 17 16 16 17 17 17 16 17 16 14 15 17 16 15 15 14 15 15 14 12 14 20 21 21 20 20 16 11 11 11 11 10 11 10 8 7 7 6 6 7 15 11 9 8 8 9 11 10 10 9 9 7 8 7 2 0 4 4 4 4
14 14 15 17 17 17 18 18 17 16 15 14 15 15 16 17 15 16 15 15 14 13 12 13 21 22 21 21 20 17 11 12 12 11 10 11 10 10 9 8 8 7 8 9 8 10 8 8 7 6 5 4 4 5 6 5 5 7 6 2 2 1 2
16 13 13 16 17 17 18 17 17 16 14 16 17 17 17 18 17 16 14 14 14 13 11 17 21 22 22 22 21 17 11 11 11 10 10 10 11 10 10 9 9 9 9 9 8 10 9 8 7 6 4 4 4 4 3 3 2 2 1 2 5 5 4
16 16 18 19 18 18 18 18 18 15 14 14 14 14 13 14 15 14 15 15 14 14 10 20 21 23 23 21 22 14 11 11 10 9 9 9 10 10 10 10 9 10 9 10 11 15 12 9 7 7 6 4 4 4 3 3 7 6 5 4 4 4 3
16 16 13 15 18 19 18 18 17 14 15 15 15 16 16 16 16 16 15 15 15 14 10 18 22 23 23 23 18 13 11 10 10 10 10 9 9 9 10 11 10 10 10 10 13 16 15 13 7 8 7 6 5 5 5 4 7 10 11 11 11 10 9
13 14 14 16 20 18 17 16 17 16 17 16 16 17 16 15 15 15 16 16 15 14 10 16 22 23 24 24 21 15 11 11 11 11 11 10 8 9 10 16 13 11 10 10 15 16 16 13 9 9 8 8 8 7 6 6 4 3 6 9 9 9 9
13 12 12 16 19 18 18 17 16 15 15 15 16 16 15 14 15 14 14 15 17 14 12 16 22 24 25 25 21 14 12 12 12 12 10 10 9 8 9 12 16 12 11 13 19 17 17 14 9 9 9 9 9 8 7 7 6 6 4 3 2 3 1
16 16 18 19 21 20 17 16 16 16 15 14 13 14 14 14 16 15 14 14 13 13 14 16 20 24 24 24 25 16 12 12 13 12 10 11 9 8 8 9 12 16 18 20 20 19 18 17 10 9 9 9 9 10 8 10 9 6 6 6 5 4 4
8 15 20 23 20 17 15 16 17 16 16 14 13 13 15 14 15 14 13 13 13 12 14 19 18 24 23 25 26 21 13 13 12 11 11 11 10 10 9 10 9 13 20 22 21 21 19 15 12 10 9 9 8 7 9 8 10 11 6 7 5 5 5
11 6 5 8 9 12 13 14 15 16 15 15 16 15 15 14 14 14 12 13 13 11 13 24 17 21 25 26 26 23 15 13 13 12 12 11 11 9 10 10 9 15 22 22 22 21 19 15 14 10 11 12 13 14 10 7 8 7 6 6 6 5 6
8 8 13 13 13 14 14 13 13 14 15 15 15 16 16 14 14 13 12 11 11 10 13 15 24 21 23 25 26 22 19 13 16 15 13 13 13 11 10 10 12 20 22 23 22 21 18 17 10 5 11 13 14 15 11 6 8 7 6 7 7 6 7
13 12 15 16 16 16 16 14 14 14 15 15 14 15 14 13 13 13 14 12 11 10 12 12 17 26 23 25 24 22 17 18 19 14 12 11 11 10 10 11 15 22 22 22 21 20 19 16 9 10 10 13 13 12 7 7 7 7 6 6 7 7 7
Wind_Direction
201 188 183 200 177 169 184 174 186 186 188 191 195 195 193 189 184 183 193 198 194 188 190 201 198 184 180 183 174 170 177 172 163 166 180 180 191 201 204 217 219 202 237 269 315 181 173 171 230 214 180 180 177 216 227 198 208 184 160 163 148 161 158
200 195 181 193 185 171 179 173 181 187 189 191 191 198 194 195 186 184 188 190 202 199 186 197 196 187 186 177 168 170 175 170 166 153 158 174 181 182 189 208 196 198 208 206 228 178 190 219 194 187 185 188 169 200 225 246 235 176 159 176 173 170 172
194 199 180 187 189 174 182 175 180 188 185 191 191 196 198 199 187 187 191 191 194 207 186 195 195 188 181 186 170 172 175 169 152 154 165 160 170 191 203 183 182 197 221 235 215 204 226 218 250 181 186 176 201 214 195 216 238 253 160 166 184 203 170
189 197 184 182 187 184 188 178 181 183 182 187 191 190 196 200 185 187 196 196 189 201 197 191 195 187 175 184 170 170 177 179 156 164 162 160 172 194 197 184 189 189 198 202 219 199 205 216 199 244 176 194 196 201 203 188 204 235 173 155 160 209 252
189 195 191 182 184 189 187 184 181 180 184 184 190 191 191 195 185 185 195 202 193 193 201 197 185 184 166 176 174 172 178 181 163 163 172 177 180 183 200 195 206 224 211 190 204 198 187 225 240 247 219 193 202 207 172 168 189 216 201 152 171 191 222
198 196 194 187 182 186 184 188 184 184 183 188 187 192 192 191 187 184 191 200 195 188 192 195 188 182 168 171 177 176 179 183 171 168 175 185 187 188 195 189 217 229 234 202 209 209 198 208 197 246 275 261 218 192 142 156 182 216 201 166 177 189 193
198 195 197 192 183 186 184 188 184 184 188 194 185 191 190 194 192 184 187 196 202 188 186 190 190 185 166 173 176 180 183 186 177 177 180 181 186 188 180 192 208 225 244 228 211 210 232 226 216 217 262 282 284 111 146 169 185 185 205 182 184 178 178
196 193 195 192 185 188 187 190 184 185 191 192 191 184 188 199 194 185 187 195 199 199 184 185 188 182 166 175 175 179 179 176 182 172 180 172 187 196 201 203 219 218 230 228 204 213 210 210 201 198 213 259 275 178 164 182 177 204 181 190 178 173 184
194 193 194 191 191 191 187 189 184 183 188 186 189 183 190 197 198 190 187 194 193 198 187 183 183 187 175 173 175 178 180 173 181 179 187 188 195 200 204 202 209 220 218 209 197 204 222 224 225 211 192 215 239 269 190 192 187 199 190 160 166 166 179
189 192 194 196 195 185 186 185 183 184 183 186 188 187 187 196 200 196 191 192 192 195 192 184 184 186 179 176 176 176 183 181 183 188 187 193 195 199 195 199 211 215 218 216 210 204 190 206 234 240 220 210 212 229 229 230 249 186 186 152 155 173 168
189 193 196 194 194 187 187 185 181 183 189 186 185 187 186 192 200 198 201 195 189 191 192 186 185 187 183 178 178 172 181 179 185 188 191 186 182 175 185 199 204 217 215 227 214 203 204 201 196 208 233 239 224 221 232 239 267 205 164 167 142 148 163
191 191 192 195 196 194 187 187 187 185 182 180 183 186 187 190 199 201 201 197 189 189 192 187 185 186 184 176 179 175 178 185 190 183 177 172 182 179 192 205 198 204 216 230 227 208 209 203 204 213 229 222 264 236 168 46 277 303 87 152 130 148 153
193 191 190 192 197 199 191 188 186 186 185 178 182 185 187 194 198 203 199 201 191 189 191 190 186 186 181 175 176 177 181 179 180 180 178 185 194 193 192 199 201 202 204 216 222 217 209 210 200 207 216 197 216 333 27 125 72 24 346 95 117 101 143
194 193 193 193 196 200 198 190 191 188 178 182 181 184 188 195 199 202 200 203 195 190 192 191 189 184 181 175 174 178 184 179 180 181 183 191 202 215 200 198 199 203 202 213 221 199 151 159 151 192 222 209 206 227 172 161 151 101 356 48 76 95 100
194 194 196 193 195 197 200 194 191 186 184 183 182 186 189 193 199 198 199 201 202 194 195 195 189 183 181 177 173 178 187 186 187 189 180 199 206 203 221 229 213 201 201 201 187 180 152 165 179 171 224 224 198 217 193 151 156 135 169 83 99 88 104
195 194 196 196 197 198 198 196 188 187 187 179 182 187 190 197 201 196 196 198 202 202 195 198 188 184 182 179 175 178 188 189 187 191 183 199 207 203 204 212 244 257 213 195 166 169 167 186 196 192 201 213 218 196 182 148 158 190 158 176 127 134 154
194 194 197 200 200 200 197 196 189 188 187 177 180 185 189 199 206 194 193 197 200 202 199 195 185 187 183 178 178 181 186 186 185 186 194 195 203 204 193 201 219 234 226 187 171 189 201 183 195 185 195 207 208 193 189 168 173 144 148 138 193 163 179
194 194 196 199 202 200 198 195 193 189 185 182 182 186 194 203 203 196 193 196 199 201 199 190 182 188 186 179 180 182 183 187 188 187 191 195 202 199 195 193 199 218 196 169 184 193 197 184 180 185 188 208 186 186 166 162 123 131 138 153 181 223 159
195 195 196 199 200 198 197 196 192 190 184 182 183 186 196 205 201 199 197 193 198 202 195 186 184 188 187 181 183 185 181 185 193 188 188 189 195 191 194 186 191 211 181 175 187 184 189 178 179 197 188 196 172 145 106 98 130 151 157 178 166 202 147
196 195 195 198 198 197 196 196 193 190 184 183 185 188 196 201 195 197 197 194 199 205 195 186 187 188 188 186 187 186 183 182 183 189 191 188 202 195 187 193 194 203 176 178 182 184 181 176 186 207 180 187 164 129 132 143 146 158 175 180 157 173 147
201 198 197 198 197 196 194 195 195 190 186 184 187 191 195 197 191 192 196 197 202 206 196 191 189 185 191 186 186 188 183 176 178 185 192 193 201 194 185 190 193 196 173 178 183 182 174 178 184 192 181 177 139 143 151 167 170 167 183 201 171 159 148
200 203 201 198 196 194 195 195 194 189 185 187 189 193 193 193 191 195 201 201 201 200 198 192 190 184 185 186 186 187 182 178 179 185 192 195 189 175 184 188 190 193 171 176 179 177 174 172 178 177 187 150 147 149 161 173 181 180 174 187 167 149 152
199 202 203 200 196 193 194 193 193 193 189 189 189 190 192 191 194 199 202 202 199 199 199 197 189 179 181 185 184 185 182 181 180 185 182 178 175 179 189 184 189 187 168 172 173 175 170 165 165 174 172 151 153 155 173 174 186 182 167 182 176 164 169
200 203 202 201 197 195 193 191 190 194 192 187 187 189 189 191 196 200 201 203 200 201 201 197 182 175 180 179 180 182 180 179 181 188 180 171 168 180 185 181 180 171 164 159 156 141 123 111 101 111 130 126 133 165 178 174 185 177 179 171 179 170 177
204 202 202 201 199 196 193 192 191 192 192 188 186 184 188 192 196 199 199 202 203 204 205 188 173 175 174 174 174 176 174 174 177 184 182 169 167 173 178 180 147 144 153 150 144 131 121 114 111 106 106 102 89 65 60 136 179 188 181 169 174 198 173
217 211 201 201 198 195 194 193 192 191 190 189 185 185 191 191 193 199 200 201 205 203 207 177 172 171 170 171 170 166 174 175 178 187 183 167 166 171 171 172 142 160 150 148 147 145 137 121 112 114 108 101 90 95 85 63 53 91 214 169 167 178 158
210 220 212 200 198 195 194 193 191 191 190 186 185 187 190 192 193 197 199 201 202 201 202 170 172 170 166 165 163 162 174 178 183 189 179 165 165 170 168 175 154 162 153 160 160 155 149 139 137 127 132 133 120 104 98 89 53 30 23 72 89 98 193
201 208 227 214 198 197 194 192 190 189 188 185 187 188 189 192 195 196 197 198 201 200 194 169 169 168 165 162 162 161 173 180 184 190 175 168 169 168 165 174 160 167 161 169 170 165 157 154 147 145 152 155 145 143 134 132 130 123 287 38 68 75 19
195 201 211 214 204 198 194 192 190 186 186 188 190 189 190 193 192 195 198 197 197 200 174 169 169 165 164 164 161 168 173 178 178 178 169 169 172 166 163 171 159 168 167 171 172 163 159 153 154 157 159 161 149 140 139 98 111 87 83 91 96 92 78
189 201 207 226 215 200 193 190 190 185 186 187 186 188 189 189 192 193 194 194 194 199 165 174 169 165 164 164 164 176 171 175 175 172 169 169 173 167 167 170 161 169 167 173 164 160 154 150 162 166 168 164 163 155 156 112 89 104 103 99 102 104 104
191 192 204 221 223 206 195 189 189 182 185 185 188 190 188 188 191 192 191 195 193 195 157 169 171 167 166 170 172 176 174 174 176 171 170 171 171 173 171 170 165 168 165 166 159 161 155 154 167 169 167 162 165 170 163 141 142 88 106 113 116 119 119
189 188 203 225 231 211 195 191 187 182 187 189 189 190 189 189 190 190 191 195 189 180 143 169 176 169 171 175 176 181 176 177 178 179 172 162 166 172 172 173 170 162 162 151 159 161 163 163 170 172 165 164 170 178 174 159 165 163 168 142 121 128 85
195 197 204 210 223 215 195 190 186 183 185 186 185 186 188 190 189 191 189 190 185 175 154 159 179 173 175 179 181 181 182 179 181 172 162 161 166 178 171 172 172 163 146 152 162 165 171 172 168 162 159 170 174 184 172 161 192 180 182 187 178 177 179
250 220 207 208 212 216 195 190 183 182 181 184 182 184 187 190 190 190 187 188 185 174 164 166 176 177 179 183 188 186 188 186 177 163 161 162 174 175 172 169 173 149 151 159 163 170 173 174 156 155 161 178 193 176 171 161 179 172 177 180 180 173 183
200 204 272 315 299 247 213 190 184 179 179 181 181 183 185 186 188 188 187 186 188 175 157 167 167 179 183 188 190 191 188 186 175 162 163 170 174 180 174 167 157 158 159 162 167 170 169 170 155 156 180 181 181 178 179 157 161 168 164 168 174 181 180
220 215 210 197 212 239 233 200 184 180 179 181 180 180 182 183 185 188 187 188 188 166 149 165 172 175 186 189 192 196 189 177 165 166 168 173 179 175 170 157 155 159 162 166 167 166 171 173 155 145 166 163 171 172 166 150 153 168 165 168 178 189 189
229 232 225 203 195 209 223 200 181 181 179 178 180 180 181 181 183 186 188 187 187 167 163 167 173 175 181 190 194 194 189 173 169 170 171 172 173 167 161 152 157 160 163 164 163 166 171 171 154 143 150 155 159 162 160 160 158 170 176 182 184 189 192